Regional Weather Roundup
Issued by NWS

Home | Current Version | Previous Version | Graphics & Text | Print | Product List | Glossary On
Versions: 1 2 3 4 5 6 7 8 9 10 11 12 13 14 15 16 17 18 19 20 21 22 23 24 25 26 27
000
ASUS43 KDMX 182007
RWRIA

WEATHER ROUNDUP FOR IOWA
NATIONAL WEATHER SERVICE DES MOINES IA
300 PM CDT FRI APR 18 2014

NOTE: "FAIR" INDICATES FEW OR NO CLOUDS BELOW 12,000 FEET WITH NO
SIGNIFICANT WEATHER AND/OR OBSTRUCTIONS TO VISIBILITY.

* - THESE STATIONS ARE NOT NWS STATIONS...THUS NOT UNDER NWS
QUALITY CONTROL.  THEY ALSO DO NOT REPORT WEATHER SUCH
AS PRECIPITATION OR FOG.

IAZ001>003-012>014-020>022-031>034-043>046-182100-
   NORTHWEST IOWA

CITY           SKY/WX    TMP DP  RH WIND       PRES   REMARKS
CARROLL *      SUNNY     63  30  29 SE17G26   30.20F
CHEROKEE *     SUNNY     64  32  29 S20G26    30.16F
DENISON *      SUNNY     63  32  31 SE17      30.17F
LE MARS *      SUNNY     64  34  32 S20G28    30.12F
ORANGE CITY *  SUNNY     64  28  25 S21       30.12F
SHELDON *      SUNNY     64  32  29 SE24G31   30.13F
SIOUX CITY     SUNNY     66  35  31 S21G29    30.14F
SPENCER        SUNNY     62  32  32 SE23G29   30.18F
STORM LAKE *   SUNNY     63  32  31 S17G29    30.18F
$$

IAZ055>058-069>071-079>083-090>094-182100-
   SOUTHWEST IOWA

CITY           SKY/WX    TMP DP  RH WIND       PRES   REMARKS
ATLANTIC *     SUNNY     64  32  29 S13G22    30.20F
AUDUBON *      SUNNY     64  21  19 S14G21    30.21F
CLARINDA *     SUNNY     64  36  34 S12G21    30.22F
COUNCIL BLFS * SUNNY     64  37  36 S17G25    30.17F
CRESTON *      SUNNY     63  34  34 S13G21    30.22F
HARLAN  *      SUNNY     64  32  29 S18       30.22F
LAMONI         SUNNY     63  35  35 SE10G17   30.25F
RED OAK *      SUNNY     64  34  32 SE9G23    30.20F
SHENANDOAH *   SUNNY     66  36  32 S16G22    30.20F
$$

IAZ047>049-059>061-072>074-084-182100-
   CENTRAL IOWA

CITY           SKY/WX    TMP DP  RH WIND       PRES   REMARKS
AMES           SUNNY     60  31  33 SE10      30.26F
ANKENY *       SUNNY     61  34  36 SE12G17   30.26S
CHARITON *     SUNNY     63  34  34 SE7G18    30.26F
DES MOINES     MOSUNNY   63  32  31 SE10      30.26F
GRINNELL*      SUNNY     59  32  36 SE9       30.29S
KNOXVILLE *    SUNNY     61  32  33 SE12      30.26F
MARSHALLTOWN   SUNNY     58  32  37 SE10      30.28F
NEWTON *       SUNNY     59  30  33 SE9G18    30.28F
PELLA *        SUNNY     63  34  34 SE7       30.29F
PERRY *          N/A     63  28  27 SE14G20   30.24F
$$

IAZ004>006-015-016-023>025-035-036-182100-
   NORTH CENTRAL IOWA

CITY           SKY/WX    TMP DP  RH WIND       PRES   REMARKS
ALGONA *       SUNNY     59  32  36 S17G23    30.23F
CLARION *      SUNNY     59  32  36 SE15G21   30.26F
ESTHERVILLE    SUNNY     59  34  39 SE18G29   30.20F
FORT DODGE *   SUNNY     61  34  36 S12       30.25F
MASON CITY     SUNNY     57  31  37 SE12      30.29F
FOREST CITY *  SUNNY     55  32  41 SE9G17    30.27F
IOWA FALLS *     N/A     57  32  38 SE10G16   30.28F
$$

IAZ007>011-017>019-026>030-037>042-050>054-066-182100-
   NORTHEAST IOWA

CITY           SKY/WX    TMP DP  RH WIND       PRES   REMARKS
CEDAR RAPIDS   SUNNY     58  26  29 CALM      30.30F
CHARLES CITY * SUNNY     55  30  38 SE8       30.30F
CLINTON *      SUNNY     57  28  33 W3        30.34F
DECORAH *      SUNNY     54  27  35 NE8       30.31F
DUBUQUE        SUNNY     57  30  35 N9        30.32F
MONTICELLO *   SUNNY     57  30  35 VRB6      30.31F
OELWEIN *      SUNNY    N/A N/A N/A CALM      30.31F
WATERLOO       SUNNY     57  29  34 SE8       30.30F
$$

IAZ064-065-067-068-078-182100-
   EAST CENTRAL IOWA

CITY           SKY/WX    TMP DP  RH WIND       PRES   REMARKS
DAVENPORT      SUNNY     60  29  30 CALM      30.31F
IOWA CITY      SUNNY     59  31  34 VRB5      30.32F
MT. PLEASANT * SUNNY     63  27  25 S5        30.30F
MUSCATINE *    SUNNY     61  28  29 CALM      30.31F
QUAD CITIES    SUNNY     62  30  29 CALM      30.30F
$$

IAZ062-063-075>077-085>089-095>099-182100-
   SOUTHEAST IOWA

CITY           SKY/WX    TMP DP  RH WIND       PRES   REMARKS
BURLINGTON     SUNNY     61  24  24 VRB3      30.30F
FAIRFIELD *    SUNNY     61  27  27 E5G14     30.30F
FORT MADISON * SUNNY     61  30  31 E7        30.30F
KEOKUK *       SUNNY     61  28  29 VRB3      30.29F
OSKALOOSA *      N/A     61  32  33 SE7       30.29F
CENTERVILLE *  SUNNY     63  34  34 SE9G16    30.28F
OTTUMWA        SUNNY     60  30  32 VRB3      30.28F
WASHINGTON *   SUNNY     61  27  27 VRB3      30.30F
$$

ABBREVIATIONS USED IN REMARKS
   TC - TEMPERATURES IN CELSIUS
  WCI - WIND CHILL INDEX
   HX - HEAT INDEX
  VSB - VISIBILITY
$$




USA.gov is the U.S. government's official web portal to all federal, state and local government web resources and services.